Topeka, KS

11:00 PM CST on November 18, 2019 (GMT -0600)
Billard Municipal

Weather History for KTOP - September, 2019

Change the Weather History Date:

Thursday, September 26, 2019

  Actual Average Record
Temperature  
Mean Temperature 65 °F 64 °F  
Max Temperature 78 °F 76 °F 96 °F (1990)
Min Temperature 52 °F 52 °F 32 °F (1975)
Degree Days  
Heating Degree Days 0 4  
Month to date heating degree days 0 45  
Since 1 July heating degree days 0 47  
Cooling Degree Days 0 3  
Month to date cooling degree days 296 154  
Year to date cooling degree days 1542 1382  
Growing Degree Days 16 (Base 50)    
Moisture  
Dew Point 51 °F    
Average Humidity 60    
Maximum Humidity 83    
Minimum Humidity 36    
Precipitation  
Precipitation 0.00 in 0.12 in 3.86 in (1917)
Month to date precipitation 1.78 3.19  
Year to date precipitation 42.67 29.76  
Snow  
Snow 0.00 in 0.00 in T in (1986)
Month to date snowfall 0.0 0.0  
Year to date snowfall 18.5 11.3  
Since 1 July snowfall T 0.0  
Snow Depth 0.00 in    
Sea Level Pressure  
Sea Level Pressure 29.93 in    
Wind  
Wind Speed 8 mph (ESE)    
Max Wind Speed 15 mph    
Max Gust Speed 22 mph    
Visibility 10 miles    
Events      
T = Trace of Precipitation, MM = Missing Value Source: NWS Daily Summary

Daily Weather History Graph

Daily Weather History Graph

Search for Another Location

Airport or City:

Astronomy

Sep. 26, 2019 Rise Set
Actual Time 7:13 AM CDT 7:13 PM CDT
Civil Twilight 6:47 AM CDT 7:39 PM CDT
Nautical Twilight 6:15 AM CDT 8:11 PM CDT
Astronomical Twilight 5:44 AM CDT 8:42 PM CDT
Moon 4:23 AM CDT (9/26) 6:25 PM CDT (9/26)
Length of Visible Light 12h 52m
Length of Day
11h 59m
Waning Crescent, 6% of the Moon is Illuminated
Sep 26
Waning Crescent
Sep 28
New
Oct 5
First Quarter
Oct 13
Full
Oct 21
Last Quarter

Hourly Weather History & Observations

Time (CDT) Temp. Dew Point Humidity Pressure Visibility Wind Dir Wind Speed Gust Speed Precip Events Conditions
12:53 AM 64.9 °F 48.0 °F 54% 29.98 in 10.0 mi NE 8.1 mph - N/A   Mostly Cloudy
1:53 AM 62.1 °F 48.9 °F 62% 29.99 in 10.0 mi NNE 3.5 mph - N/A   Clear
2:53 AM 61.0 °F 50.0 °F 67% 30.01 in 10.0 mi NNE 3.5 mph - N/A   Mostly Cloudy
3:53 AM 57.9 °F 51.1 °F 78% 30.01 in 10.0 mi North 3.5 mph - N/A   Clear
4:53 AM 57.0 °F 48.9 °F 74% 30.00 in 10.0 mi North 3.5 mph - N/A   Clear
5:53 AM 59.0 °F 46.9 °F 64% 30.00 in 10.0 mi SE 6.9 mph - N/A   Clear
6:53 AM 55.9 °F 48.9 °F 77% 30.02 in 10.0 mi SSE 3.5 mph - N/A   Clear
7:53 AM 55.9 °F 50.0 °F 80% 30.04 in 10.0 mi Calm Calm - N/A   Clear
8:53 AM 62.1 °F 50.0 °F 65% 30.04 in 10.0 mi ESE 6.9 mph - N/A   Clear
9:53 AM 66.0 °F 46.0 °F 48% 30.05 in 10.0 mi ESE 10.4 mph - N/A   Clear
10:53 AM 69.1 °F 43.0 °F 39% 30.04 in 10.0 mi East 12.7 mph - N/A   Partly Cloudy
11:53 AM 71.1 °F 45.0 °F 39% 30.02 in 10.0 mi SE 8.1 mph - N/A   Scattered Clouds
12:53 PM 73.0 °F 46.0 °F 38% 29.98 in 10.0 mi East 9.2 mph - N/A   Clear
1:53 PM 75.9 °F 48.0 °F 37% 29.94 in 10.0 mi ESE 6.9 mph - N/A   Clear
2:53 PM 77.0 °F 48.9 °F 37% 29.90 in 10.0 mi SSE 11.5 mph - N/A   Clear
3:53 PM 78.1 °F 51.1 °F 39% 29.87 in 10.0 mi ESE 11.5 mph - N/A   Clear
4:53 PM 77.0 °F 52.0 °F 42% 29.84 in 10.0 mi SSE 10.4 mph - N/A   Overcast
5:53 PM 75.9 °F 53.1 °F 45% 29.81 in 10.0 mi SE 9.2 mph - N/A   Overcast
6:53 PM 73.9 °F 55.9 °F 53% 29.80 in 10.0 mi ESE 6.9 mph - N/A   Overcast
7:53 PM 72.0 °F 55.9 °F 57% 29.79 in 10.0 mi SE 6.9 mph - N/A   Overcast
8:53 PM 71.1 °F 59.0 °F 66% 29.78 in 10.0 mi SE 9.2 mph - N/A   Overcast
9:53 PM 72.0 °F 61.0 °F 68% 29.78 in 10.0 mi SSE 9.2 mph - N/A   Overcast
10:53 PM 72.0 °F 62.1 °F 71% 29.75 in 10.0 mi SSE 10.4 mph - N/A   Overcast
11:53 PM 73.0 °F 63.0 °F 71% 29.74 in 10.0 mi South 10.4 mph - N/A   Overcast